| time (UTC) | temp C | wind direction | speed KPH | gust KPH | rain 1hr cm | rain 24hr cm | rain mn cm | humidity % | barometer mb |
| 20260504211510 | 11 | 311 | 11.3 | 24.1 | 0.00 | 0.61 | 0.05 | 59 | 994.5 |
| 20260504210009 | 11 | 321 | 11.3 | 27.4 | 0.00 | 0.61 | 0.05 | 58 | 994.4 |
| 20260504204515 | 11 | 34 | 11.3 | 24.1 | 0.00 | 0.61 | 0.05 | 59 | 994.3 |
| 20260504203008 | 11 | 334 | 14.5 | 45.1 | 0.00 | 0.61 | 0.05 | 59 | 994.2 |
| 20260504201507 | 11 | 315 | 19.3 | 29.0 | 0.00 | 0.61 | 0.05 | 59 | 994.1 |
| 20260504200007 | 11 | 247 | 16.1 | 30.6 | 0.00 | 0.61 | 0.05 | 60 | 993.9 |
| 20260504194507 | 11 | 302 | 8.0 | 20.9 | 0.00 | 0.64 | 0.05 | 59 | 993.9 |
| 20260504193005 | 11 | 319 | 8.0 | 20.9 | 0.00 | 0.64 | 0.05 | 59 | 993.8 |
| 20260504191504 | 11 | 348 | 12.9 | 33.8 | 0.00 | 0.64 | 0.05 | 60 | 993.8 |
| 20260504190006 | 11 | 360 | 8.0 | 32.2 | 0.00 | 0.64 | 0.05 | 61 | 993.7 |
| 20260504184503 | 11 | 268 | 11.3 | 35.4 | 0.00 | 0.69 | 0.05 | 60 | 993.8 |
| 20260504183003 | 11 | 340 | 17.7 | 48.3 | 0.00 | 0.69 | 0.05 | 61 | 993.7 |
| 20260504181501 | 11 | 329 | 17.7 | 38.6 | 0.00 | 0.69 | 0.05 | 61 | 993.6 |
| 20260504180100 | 11 | 360 | 14.5 | 29.0 | 0.00 | 0.69 | 0.05 | 62 | 993.7 |
| 20260504174559 | 11 | 229 | 12.9 | 25.7 | 0.00 | 0.69 | 0.05 | 62 | 993.6 |
| 20260504173101 | 11 | 5 | 12.9 | 27.4 | 0.00 | 0.69 | 0.05 | 62 | 993.5 |
| 20260504171557 | 11 | 349 | 9.7 | 25.7 | 0.00 | 0.69 | 0.05 | 63 | 993.5 |
| 20260504081547 | 3 | 319 | 3.2 | 11.3 | 0.00 | 0.71 | 0.05 | 94 | 996.8 |
| 20260504050014 | 2 | 306 | 6.4 | 11.3 | 0.05 | 0.71 | 0.05 | 95 | 1000.1 |
| 20260504044504 | 2 | 330 | 4.8 | 8.0 | 0.03 | 0.69 | 0.03 | 95 | 1000.4 |
| 20260504043101 | 2 | 321 | 4.8 | 11.3 | 0.05 | 0.69 | 0.03 | 95 | 1000.6 |
| 20260504041557 | 2 | 317 | 4.8 | 11.3 | 0.05 | 0.69 | 0.03 | 95 | 1000.9 |
| 20260504040053 | 2 | 335 | 1.6 | 6.4 | 0.05 | 0.66 | 0.00 | 95 | 1001.4 |
| 20260504034551 | 2 | 59 | 1.6 | 6.4 | 0.08 | 0.66 | 0.66 | 95 | 1001.6 |
| 20260504033048 | 2 | 59 | 1.6 | 4.8 | 0.08 | 0.64 | 0.64 | 95 | 1001.9 |
| 20260504031548 | 2 | 59 | 0.0 | 4.8 | 0.08 | 0.61 | 0.61 | 95 | 1002.2 |
| 20260504030044 | 2 | 59 | 3.2 | 6.4 | 0.08 | 0.61 | 0.61 | 95 | 1002.4 |
| 20260504024545 | 2 | 59 | 3.2 | 6.4 | 0.08 | 0.58 | 0.58 | 95 | 1002.7 |
| 20260504023041 | 2 | 95 | 1.6 | 8.0 | 0.05 | 0.56 | 0.56 | 95 | 1002.8 |
| 20260504021538 | 2 | 111 | 4.8 | 6.4 | 0.05 | 0.53 | 0.53 | 95 | 1003.2 |
| 20260504020048 | 2 | 111 | 4.8 | 8.0 | 0.05 | 0.51 | 0.51 | 95 | 1003.5 |
| 20260504014548 | 2 | 119 | 4.8 | 11.3 | 0.05 | 0.51 | 0.51 | 95 | 1003.6 |
| 20260504013037 | 2 | 105 | 8.0 | 12.9 | 0.05 | 0.51 | 0.51 | 95 | 1003.8 |
| 20260504011531 | 2 | 97 | 8.0 | 16.1 | 0.05 | 0.48 | 0.48 | 95 | 1004.0 |
| 20260504010029 | 2 | 101 | 8.0 | 22.5 | 0.05 | 0.48 | 0.48 | 95 | 1004.1 |
| 20260504004533 | 2 | 111 | 11.3 | 19.3 | 0.05 | 0.46 | 0.46 | 95 | 1004.1 |
| 20260504003027 | 2 | 108 | 11.3 | 24.1 | 0.05 | 0.43 | 0.43 | 95 | 1004.1 |
| 20260504001527 | 2 | 117 | 12.9 | 22.5 | 0.05 | 0.43 | 0.43 | 95 | 1004.3 |
| 20260504000126 | 2 | 120 | 11.3 | 25.7 | 0.05 | 0.43 | 0.43 | 95 | 1004.4 |
| 20260503234526 | 2 | 107 | 8.0 | 19.3 | 0.08 | 0.41 | 0.41 | 95 | 1004.4 |
| 20260503233023 | 2 | 84 | 8.0 | 16.1 | 0.08 | 0.38 | 0.38 | 95 | 1004.5 |
| 20260503231522 | 2 | 90 | 9.7 | 20.9 | 0.10 | 0.38 | 0.38 | 95 | 1004.5 |
| 20260503230021 | 2 | 116 | 9.7 | 19.3 | 0.10 | 0.33 | 0.33 | 95 | 1004.6 |
| 20260503224520 | 3 | 111 | 11.3 | 20.9 | 0.10 | 0.33 | 0.33 | 95 | 1004.7 |
| 20260503223019 | 3 | 114 | 8.0 | 16.1 | 0.13 | 0.30 | 0.30 | 95 | 1004.8 |
| 20260503221518 | 3 | 95 | 9.7 | 20.9 | 0.15 | 0.28 | 0.28 | 95 | 1004.8 |
| 20260503220017 | 2 | 115 | 9.7 | 22.5 | 0.15 | 0.23 | 0.23 | 95 | 1005.0 |
| 20260503214518 | 2 | 108 | 9.7 | 16.1 | 0.15 | 0.23 | 0.23 | 94 | 1005.2 |
| 20260503213014 | 2 | 129 | 9.7 | 19.3 | 0.10 | 0.18 | 0.18 | 94 | 1005.3 |